Weather reports worldwide

Advertisment
Nordkoster, Sweden (2500): temperature & dewpoint: 10.10.2019 05:00:00 - 16.10.2019 05:00:00 (CEST)Nordkoster, Sweden (2500): wind speed & gusts: 10.10.2019 05:00:00 - 16.10.2019 05:00:00 (CEST)Nordkoster, Sweden (2500): wind direction: 10.10.2019 05:00:00 - 16.10.2019 05:00:00 (CEST)Nordkoster, Sweden (2500): reduced air pressure: 10.10.2019 05:00:00 - 16.10.2019 05:00:00 (CEST)Nordkoster, Sweden (2500): visibility: 10.10.2019 05:00:00 - 16.10.2019 05:00:00 (CEST)Nordkoster, Sweden (2500): precipitation: 10.10.2019 05:00:00 - 16.10.2019 05:00:00 (CEST)
Date & Time tt [°C] td [°C] ff [km/h] ff [kn] fx [km/h] fx [kn] dd ppp [hPa] vv [km] rr [mm]
16.10.2019 05:00:00 8,7 8,3 18 10 26 14 NNE 1006,3 4,2 0,2
16.10.2019 04:00:00 8,9 8,4 17 9 24 13 NNE 1006,3 - 0,1
16.10.2019 03:00:00 9,3 8,7 16 9 25 14 NE 1006,5 - 0,0
16.10.2019 02:00:00 9,2 8,7 19 10 33 18 NE 1006,6 0,1 0,2
16.10.2019 01:00:00 9,0 8,5 19 11 28 15 NNE 1007,0 - 0,8
16.10.2019 00:00:00 9,5 9,0 11 6 21 11 NE 1007,3 - 0,8
15.10.2019 23:00:00 9,5 8,9 12 7 27 15 E 1007,3 - 0,0
15.10.2019 22:00:00 9,5 8,6 19 10 29 16 E 1007,3 - 0,0
15.10.2019 21:00:00 9,6 8,5 20 11 29 16 E 1007,4 0,1 0,0
15.10.2019 20:00:00 9,2 8,3 20 11 34 19 E 1007,5 0,1 0,0
15.10.2019 19:00:00 9,0 8,4 20 11 29 15 E 1008,1 - 0,0
15.10.2019 18:00:00 9,1 8,3 21 11 34 19 E 1008,4 - 0,1
15.10.2019 17:00:00 9,3 8,1 24 13 38 20 E 1008,3 - 0,0
15.10.2019 16:00:00 9,3 7,7 22 12 38 21 E 1009,2 0,1 0,0
15.10.2019 15:00:00 8,9 7,3 22 12 35 19 E 1009,7 0,1 0,1
15.10.2019 14:00:00 8,5 7,0 20 11 44 24 E 1010,3 0,1 0,0
15.10.2019 13:00:00 8,3 6,9 30 16 43 23 ENE 1011,0 0,1 0,2
15.10.2019 12:00:00 8,3 7,2 26 14 37 20 ENE 1012,4 - 2,5
15.10.2019 11:00:00 8,0 7,4 24 13 34 18 ENE 1013,0 - 3,7
15.10.2019 10:00:00 8,1 7,2 16 9 27 15 ENE 1014,1 - 1,7
15.10.2019 09:00:00 8,2 7,0 14 8 27 14 ENE 1014,2 - 1,0
15.10.2019 08:00:00 8,1 6,2 17 9 32 17 ENE 1013,7 0,1 0,0
15.10.2019 07:00:00 7,8 5,9 21 11 27 15 ENE 1013,7 0,1 0,0
15.10.2019 06:00:00 7,8 5,6 21 11 27 14 ENE 1014,4 0,1 0,0
15.10.2019 05:00:00 7,7 5,7 13 7 20 11 E 1015,4 0,1 0,0
15.10.2019 04:00:00 7,7 5,3 13 7 18 10 E 1015,8 0,1 0,0
15.10.2019 03:00:00 7,3 5,3 11 6 15 8 E 1016,6 0,1 0,0
15.10.2019 02:00:00 7,6 5,4 10 5 - - ESE 1016,9 0,1 0,0
15.10.2019 01:00:00 7,5 5,5 11 6 16 9 ESE 1016,8 0,1 0,0
15.10.2019 00:00:00 7,8 5,4 11 6 15 8 ESE 1016,5 0,1 0,0
14.10.2019 23:00:00 8,0 5,1 11 6 21 12 SE 1016,2 0,1 0,0
14.10.2019 22:00:00 8,0 5,5 14 7 19 10 SE 1016,2 0,1 0,0
14.10.2019 21:00:00 7,7 5,2 7 4 15 8 SE 1015,9 0,1 0,0
14.10.2019 20:00:00 9,1 5,3 11 6 16 8 S 1015,7 0,1 0,0
14.10.2019 19:00:00 9,6 5,4 5 3 15 8 S 1015,5 0,1 0,0
14.10.2019 18:00:00 9,5 5,9 3 2 6 3 W 1014,7 0,1 0,0
14.10.2019 17:00:00 9,8 5,8 0 0 9 5 N 1014,1 0,1 0,0
14.10.2019 16:00:00 10,3 5,5 0 0 13 7 N 1013,3 - 0,0
14.10.2019 15:00:00 9,7 5,9 9 5 18 10 NNW 1012,8 0,1 0,0
14.10.2019 14:00:00 9,7 6,0 11 6 22 12 N 1011,8 - 0,0
14.10.2019 13:00:00 9,2 6,3 15 8 31 17 N 1010,8 0,1 0,0
14.10.2019 12:00:00 8,9 6,2 18 10 39 21 N 1009,6 41 0,0
14.10.2019 11:00:00 8,4 5,7 21 12 39 21 N 1007,7 43 0,0
14.10.2019 10:00:00 7,7 5,8 28 15 49 26 N 1005,4 49 0,0
14.10.2019 09:00:00 7,6 6,1 31 17 54 29 N 1002,7 40 0,7
14.10.2019 08:00:00 7,5 6,3 37 20 59 32 N 1000,4 7 1,3
14.10.2019 07:00:00 7,7 6,8 34 18 58 31 NNE 998,6 6 0,3
14.10.2019 06:00:00 7,7 6,8 31 17 46 25 NNE 997,9 8 0,7
14.10.2019 05:00:00 7,7 6,8 28 15 44 24 NE 998,3 7 1,6
14.10.2019 04:00:00 7,8 6,3 32 17 48 26 ENE 998,3 7 0,8
14.10.2019 03:00:00 8,5 7,1 29 16 39 21 E 999,4 10 2,1
14.10.2019 02:00:00 8,8 7,7 16 9 27 14 NE 1001,5 9 3,2
14.10.2019 01:00:00 9,1 8,0 19 10 32 17 E 1001,8 9 2,1
14.10.2019 00:00:00 9,6 8,5 13 7 22 12 ESE 1003,3 12 0,5
13.10.2019 23:00:00 9,8 8,4 12 6 17 9 E 1004,0 21 0,0
13.10.2019 22:00:00 10,1 8,2 13 7 19 10 ESE 1005,2 23 0,0
13.10.2019 21:00:00 10,4 8,8 13 7 22 12 ESE 1006,3 20 0,0
13.10.2019 20:00:00 10,7 9,3 15 8 20 11 SE 1006,9 16 0,0
13.10.2019 19:00:00 11,1 9,7 13 7 21 11 SSE 1007,2 16 0,0
13.10.2019 18:00:00 11,4 9,5 12 6 20 11 S 1007,5 15 0,0
13.10.2019 17:00:00 11,7 9,4 15 8 23 13 SW 1008,2 15 0,0
13.10.2019 16:00:00 12,3 9,3 13 7 26 14 SW 1008,1 16 0,0
13.10.2019 15:00:00 12,3 9,3 15 8 31 17 WSW 1008,1 16 0,0
13.10.2019 14:00:00 12,5 8,8 19 10 32 17 WSW 1007,9 19 0,0
13.10.2019 13:00:00 12,5 8,4 20 11 34 18 WSW 1007,7 22 0,0
13.10.2019 12:00:00 12,1 7,4 23 13 36 19 WSW 1007,3 24 0,0
13.10.2019 11:00:00 11,8 7,7 22 12 33 18 WSW 1006,6 25 0,0
13.10.2019 10:00:00 11,4 7,5 22 12 36 20 WSW 1006,0 18 0,0
13.10.2019 09:00:00 10,8 7,1 24 13 40 22 WSW 1005,5 27 0,0
13.10.2019 08:00:00 10,6 6,4 27 14 41 22 WSW 1004,7 27 0,0
13.10.2019 07:00:00 10,4 6,4 25 14 36 20 WSW 1004,1 31 0,0
13.10.2019 06:00:00 10,5 6,1 23 13 32 17 W 1003,7 29 0,0
13.10.2019 05:00:00 10,3 6,6 21 11 37 20 W 1003,3 24 0,0
13.10.2019 04:00:00 10,7 5,9 29 16 39 21 W 1002,7 25 0,0
13.10.2019 03:00:00 10,6 6,2 23 12 47 25 W 1002,5 21 0,0
13.10.2019 02:00:00 10,8 6,4 30 16 45 24 W 1001,8 22 0,0
13.10.2019 01:00:00 11,1 6,2 30 16 44 24 W 1000,9 22 0,0
13.10.2019 00:00:00 11,2 6,7 28 15 50 27 W 1000,1 22 0,0
12.10.2019 23:00:00 11,4 7,3 38 21 53 29 W 998,7 18 0,0
12.10.2019 22:00:00 11,5 7,6 35 19 58 31 W 997,6 16 0,0
12.10.2019 21:00:00 11,6 7,9 37 20 59 32 WSW 996,6 14 0,0
12.10.2019 20:00:00 12,0 7,5 39 21 59 32 WSW 995,8 14 0,0
12.10.2019 19:00:00 12,1 7,6 35 19 55 30 WSW 995,5 16 0,0
12.10.2019 18:00:00 12,1 8,8 33 18 49 26 WSW 995,1 14 0,0
12.10.2019 17:00:00 12,4 8,9 29 16 47 26 WSW 994,8 15 0,0
12.10.2019 16:00:00 12,7 9,0 27 15 48 26 WSW 994,7 13 0,0
12.10.2019 15:00:00 12,5 8,6 31 17 46 25 WSW 994,3 18 0,0
12.10.2019 14:00:00 12,3 8,9 27 15 45 24 WSW 994,1 12 0,0
12.10.2019 13:00:00 12,1 8,9 27 14 46 25 SW 994,2 12 0,0
12.10.2019 12:00:00 12,8 9,2 29 16 49 26 WSW 993,9 10 0,0
12.10.2019 11:00:00 12,0 8,8 29 16 50 27 WSW 993,7 11 0,0
12.10.2019 10:00:00 11,9 8,2 32 17 49 27 WSW 993,1 12 0,0
12.10.2019 09:00:00 11,7 8,2 33 18 49 26 WSW 992,6 11 0,0
12.10.2019 08:00:00 11,6 8,6 32 17 48 26 WSW 991,9 11 0,0
12.10.2019 07:00:00 11,5 8,7 31 17 50 27 WSW 991,4 11 0,0
12.10.2019 06:00:00 11,5 8,5 31 17 46 25 WSW 991,5 12 0,0
12.10.2019 05:00:00 11,3 8,0 29 16 47 26 WSW 991,4 12 0,0
12.10.2019 04:00:00 11,2 7,7 32 17 46 25 WSW 991,3 12 0,0
12.10.2019 03:00:00 11,2 7,7 29 16 43 23 WSW 991,2 13 0,0
12.10.2019 02:00:00 11,3 7,6 27 14 44 24 WSW 991,1 12 0,0
12.10.2019 01:00:00 11,3 8,2 26 14 45 24 WSW 991,1 11 0,0
12.10.2019 00:00:00 11,3 7,8 27 15 42 23 WSW 990,9 12 0,0
11.10.2019 23:00:00 11,3 8,5 26 14 44 24 WSW 991,0 11 0,0
11.10.2019 22:00:00 11,5 8,7 27 15 40 22 WSW 990,9 11 0,0
11.10.2019 21:00:00 11,5 8,7 27 15 41 22 WSW 991,0 12 0,0
11.10.2019 20:00:00 11,7 9,9 24 13 41 22 WSW 991,4 8 0,0
11.10.2019 19:00:00 11,7 10,3 25 13 43 23 SW 991,6 8 0,0
11.10.2019 18:00:00 11,7 10,4 26 14 39 21 SW 991,9 9 0,0
11.10.2019 17:00:00 11,6 10,5 12 6 31 17 SSW 992,3 8 0,7
11.10.2019 16:00:00 11,7 10,8 18 10 31 17 WSW 993,1 7 0,4
11.10.2019 15:00:00 12,8 10,9 19 11 38 21 SW 993,6 10 0,0
11.10.2019 14:00:00 12,8 11,2 23 13 48 26 SW 993,7 10 0,0
11.10.2019 13:00:00 11,8 11,0 35 19 50 27 SSW 993,9 9 1,0
11.10.2019 12:00:00 10,4 9,9 18 10 29 16 S 994,9 5 2,2
11.10.2019 11:00:00 9,9 9,1 19 10 32 18 S 995,6 11 0,8
11.10.2019 10:00:00 9,8 8,9 14 7 27 15 SW 996,1 8 1,9
11.10.2019 09:00:00 9,6 8,4 22 12 32 17 SSW 996,3 10 0,4
11.10.2019 08:00:00 10,3 6,8 17 9 26 14 SW 996,7 18 0,0
11.10.2019 07:00:00 10,7 7,0 11 6 28 15 WSW 997,1 15 0,0
11.10.2019 06:00:00 10,7 7,2 19 10 38 20 WSW 997,7 16 0,0
11.10.2019 05:00:00 10,5 6,8 24 13 40 21 WSW 997,6 16 0,0
11.10.2019 04:00:00 10,6 6,2 23 12 40 22 WSW 998,0 21 0,0
11.10.2019 03:00:00 10,6 6,9 26 14 41 22 WSW 998,2 19 0,0
11.10.2019 02:00:00 10,8 7,3 29 16 48 26 WSW 998,1 19 0,0
11.10.2019 01:00:00 11,0 8,2 27 15 44 24 WSW 998,0 18 0,0
11.10.2019 00:00:00 11,2 8,8 27 14 45 24 WSW 997,7 18 0,0
10.10.2019 23:00:00 11,3 9,7 22 12 39 21 SW 997,6 13 0,0
10.10.2019 22:00:00 11,2 9,5 23 12 42 23 SW 997,8 15 0,0
10.10.2019 21:00:00 11,4 9,5 23 12 34 18 SSW 998,1 15 0,0
10.10.2019 20:00:00 11,3 9,2 20 11 30 16 SW 998,4 14 0,0
10.10.2019 19:00:00 11,2 9,1 15 8 21 11 SSW 998,7 17 0,0
10.10.2019 18:00:00 11,1 9,0 16 8 20 11 SSW 998,5 23 0,0
10.10.2019 17:00:00 11,4 9,0 14 7 22 12 SSW 998,7 17 0,0
10.10.2019 16:00:00 11,6 9,0 7 4 12 7 SW 998,9 16 0,0
10.10.2019 15:00:00 11,9 8,9 3 2 9 5 SW 998,9 21 0,0
10.10.2019 14:00:00 10,9 8,6 3 2 8 4 NW 998,7 24 0,0
10.10.2019 13:00:00 9,8 9,0 2 1 7 4 ENE 998,6 17 0,0
10.10.2019 12:00:00 9,2 9,1 3 1 5 3 NW 998,6 13 0,0
10.10.2019 11:00:00 8,5 8,4 0 0 8 5 N 998,3 4,9 0,0
10.10.2019 10:00:00 7,9 7,6 6 4 14 8 NNW 997,9 3,5 0,0
10.10.2019 09:00:00 8,2 7,8 7 4 11 6 NNW 997,5 1,1 0,0
10.10.2019 08:00:00 8,5 8,2 0 0 7 4 N 997,1 2,2 0,0
10.10.2019 07:00:00 8,2 7,9 7 4 9 5 NE 996,8 7 0,0
10.10.2019 06:00:00 8,2 7,9 5 3 9 5 NNE 996,7 5 0,0
10.10.2019 05:00:00 8,3 8,0 5 3 9 5 NNE 996,6 0,4 0,0

tt = temperature
td = dewpoint
ff = wind speed
fx = gusts
dd = wind direction
ppp = reduced air pressure
vv = visibility
rr = precipitation

Next stations